Aswan, Egypt

2:02 AM EET on December 18, 2017 (GMT +0200)
Aswan

Weather History for HESN - January, 2014

Change the Weather History Date:

Sunday, January 19, 2014

  Actual Average Record
Temperature  
Mean Temperature 66 °F -  
Max Temperature 80 °F 73 °F 85 °F (2013)
Min Temperature 51 °F 51 °F 42 °F (2005)
Growing Degree Days 16 (Base 50)    
Moisture  
Dew Point 35 °F    
Average Humidity 33    
Maximum Humidity 47    
Minimum Humidity 18    
Precipitation  
Precipitation 0.00 in 0.00 in - ()
Sea Level Pressure  
Sea Level Pressure 30.13 in    
Wind  
Wind Speed 5 mph ()    
Max Wind Speed 9 mph    
Max Gust Speed -    
Visibility 6.0 miles    
Events      
Averages and records for this station are not official NWS values.
T = Trace of Precipitation, MM = Missing Value Source: Averaged Metar Reports

Daily Weather History Graph

Daily Weather History Graph

Search for Another Location

Airport or City:

Trip Planner

Search our weather history database for the weather conditions in past years. The results will help you decide how hot, cold, wet, or windy it might be!

Date:

Astronomy

Jan. 19, 2014 Rise Set
Actual Time 6:33 AM EET 5:25 PM EET
Civil Twilight 6:09 AM EET 5:49 PM EET
Nautical Twilight 5:41 AM EET 6:17 PM EET
Astronomical Twilight 5:14 AM EET 6:44 PM EET
Moon 8:18 PM EET (1/19) 8:16 AM EET (1/19)
Length of Visible Light 11h 40m
Length of Day
10h 52m
Waning Gibbous, 91% of the Moon is Illuminated
Jan 19
Waning Gibbous
Jan 24
Last Quarter
Jan 30
New
Feb 6
First Quarter
Feb 15
Full

Hourly Weather History & Observations

Time (EET) Temp. Dew Point Humidity Pressure Visibility Wind Dir Wind Speed Gust Speed Precip Events Conditions
12:00 AM 60.8 °F 24.8 °F 25% 30.12 in - North 6.9 mph - N/A   Clear
1:00 AM 59.0 °F 26.6 °F 29% 30.12 in - North 5.8 mph - N/A   Clear
2:00 AM 58 °F 29 °F 21% 30.13 in 6 mi North 5.8 mph - -  
2:00 AM 59.0 °F 28.4 °F 31% 30.12 in - North 5.8 mph - N/A   Clear
3:00 AM 57.2 °F 32.0 °F 38% 30.12 in - North 5.8 mph - N/A   Clear
4:00 AM 55.4 °F 32.0 °F 41% 30.12 in - North 6.9 mph - N/A   Clear
5:00 AM 53 °F 32 °F 32% 30.16 in 6 mi North 5.8 mph - -  
5:00 AM 53.6 °F 32.0 °F 44% 30.15 in - North 5.8 mph - N/A   Clear
6:00 AM 51.8 °F 32.0 °F 47% 30.15 in - North 4.6 mph - N/A   Clear
7:00 AM 51.8 °F 32.0 °F 47% 30.18 in - North 5.8 mph - N/A   Clear
8:00 AM 54 °F 34 °F 34% 30.20 in 6 mi NNW 5.8 mph - -  
8:00 AM 53.6 °F 33.8 °F 47% 30.18 in - NNW 5.8 mph - N/A   Clear
9:00 AM 59.0 °F 37.4 °F 45% 30.18 in - North 6.9 mph - N/A   Clear
10:00 AM 64.4 °F 41.0 °F 42% 30.21 in - North 4.6 mph - N/A   Clear
11:00 AM 67 °F 43 °F 30% 30.19 in 6 mi North 6.9 mph - -  
11:00 AM 68.0 °F 42.8 °F 40% 30.18 in - North 6.9 mph - N/A   Clear
12:00 PM 73.4 °F 44.6 °F 36% 30.15 in - NNE 8.1 mph - N/A   Clear
1:00 PM 77.0 °F 41.0 °F 28% 30.09 in - NNE 5.8 mph - N/A   Clear
2:00 PM 80.6 °F 35.6 °F 20% 30.06 in - ENE 9.2 mph - N/A   Clear
3:00 PM 80.6 °F 33.8 °F 18% 30.06 in - East 8.1 mph - N/A   Clear
4:00 PM 80.6 °F 33.8 °F 18% 30.06 in - East 6.9 mph - N/A   Clear
5:00 PM 80.6 °F 35.6 °F 20% 30.06 in - East 3.5 mph - N/A   Clear
6:00 PM 75.2 °F 32.0 °F 21% 30.06 in - SSW 3.5 mph - N/A   Clear
7:00 PM 75.2 °F 37.4 °F 25% 30.09 in - North 4.6 mph - N/A   Clear
8:00 PM 71.6 °F 37.4 °F 29% 30.09 in - NNW 3.5 mph - N/A   Clear
9:00 PM 69.8 °F 39.2 °F 33% 30.09 in - North 8.1 mph - N/A   Clear
10:00 PM 68.0 °F 39.2 °F 35% 30.09 in - North 6.9 mph - N/A   Clear
11:00 PM 64.4 °F 39.2 °F 40% 30.09 in - North 3.5 mph - N/A   Clear